User: anonymous   Login
Location: Mentone
(34.5413°N, 85.5351°W)
Time: 13:45:02
(UTC-05:00)
Language:

NOSS 2-2 (E) - Orbit

View from above orbital plane
View from above orbital plane
View from above satellite
View from above satellite

Ground track
Ground track

The orbit data is extracted from the following two-line orbital elements,

1 21809U 91076E   17288.74624552 0.00000250  00000-0  76958-4 0    03
2 21809  63.3460 147.0207 0757000  23.5899 336.4101 13.41373109    00
Epoch (UTC): 15 October 2017 17:54:35
Eccentricity: 0.0757000
inclination: 63.3460°
perigee height: 538 km
apogee height: 1670 km
right ascension of ascending node: 147.0207°
argument of perigee: 23.5899°
revolutions per day: 13.41373109
mean anomaly at epoch: 336.4101°
orbit number at epoch: 0

The dashed part of the orbit path shows where the satellite is in the earth's shadow,  

DLR